Flag for Australia Weather past 2 weeks in Samford, Queensland, Australia

82 °F

Partly sunny.

Feels Like: 87 °F
Forecast: 71 / 84 °F
Wind: 18 mph from North

Location: Brisbane Airport M. O

Current Time: Dec 1, 2015 at 2:22:50 PM

Latest Report: Dec 1, 2015 at 1:00 PM

Visibility: N/A

Pressure: 29.95 "Hg

Humidity: 70%

Dew point: 72 °F

Location of SamfordLocation

Historic Weather in Samford — Graph


Samford temperature yesterday

Maximum temperature yesterday: 84 °F (at 10:00 AM)
Minimum temperature yesterday: 70 °F (at 12:00 AM)
Average temperature yesterday: 78 °F

Past Weeks' High & Low Weather Summary

High84 °F (Nov 21, 11:00 AM)100% (Nov 29, 6:05 PM)30.12 "Hg (Nov 29, 6:05 PM)
Low61 °F (Nov 18, 3:30 AM)47% (Nov 17, 1:00 PM)29.74 "Hg (Nov 26, 4:00 PM)
Average75 °F76%29.95 "Hg
* Reported Nov 16 12:00 Noon — Dec 1 12:30 PM, Samford, Weather by CustomWeather, © 2015

Note: Actual official high and low records may vary slightly from our data, if they occured in-between our weather recording intervals... More about our weather records


Samford weather history for previous 24 hours

Time TempWeatherWind HumidityBarometerVisibility
12:30 PM
Tue, Dec 1
81 °FPartly sunny.18 mph74%29.95 "HgN/A
12:00 PM82 °FPartly sunny.20 mph70%29.95 "HgN/A
11:00 AM82 °FPartly sunny.18 mph70%29.95 "HgN/A
10:00 AM82 °FPassing clouds.16 mph66%29.98 "HgN/A
9:30 AM82 °FPassing clouds.15 mph66%29.98 "HgN/A
9:00 AM81 °FPassing clouds.15 mph70%29.98 "HgN/A
8:00 AM81 °FPassing clouds.13 mph70%29.98 "HgN/A
7:00 AM77 °FPassing clouds.9 mph79%29.98 "HgN/A
6:30 AM75 °FPassing clouds.8 mph83%29.98 "HgN/A
6:00 AM73 °FPassing clouds.8 mph89%29.98 "HgN/A
5:30 AM73 °FPassing clouds.6 mph89%29.95 "HgN/A
5:00 AM72 °FPassing clouds.7 mph94%29.95 "HgN/A
4:30 AM73 °FPassing clouds.9 mph89%29.92 "HgN/A
4:00 AM73 °FPassing clouds.10 mph89%29.92 "HgN/A
3:00 AM73 °FClear.9 mph89%29.92 "Hg10 mi
2:30 AM73 °FClear.9 mph89%29.89 "Hg10 mi
2:00 AM73 °FClear.10 mph89%29.89 "Hg10 mi
1:30 AM75 °FPassing clouds.12 mph83%29.89 "HgN/A
1:00 AM75 °FClear.10 mph83%29.89 "Hg10 mi
12:30 AM75 °FPassing clouds.13 mph83%29.89 "HgN/A
12:00 AM77 °FClear.13 mph79%29.89 "Hg10 mi
11:30 PM
Mon, Nov 30
77 °FClear.17 mph79%29.89 "Hg10 mi
11:00 PM77 °FClear.16 mph83%29.92 "Hg10 mi
10:30 PM77 °FPassing clouds.16 mph83%29.92 "HgN/A
10:00 PM77 °FPassing clouds.18 mph83%29.92 "HgN/A
9:30 PM77 °FClear.21 mph83%29.92 "Hg10 mi
9:00 PM77 °FClear.17 mph89%29.89 "Hg10 mi
8:30 PM79 °FClear.22 mph84%29.89 "Hg10 mi
8:00 PM77 °FClear.17 mph83%29.89 "Hg10 mi
7:30 PM79 °FPassing clouds.20 mph79%29.86 "HgN/A
7:00 PM79 °FPassing clouds.17 mph79%29.86 "HgN/A
6:30 PM79 °FScattered showers. Passing clouds.16 mph79%29.86 "HgN/A
6:00 PM79 °FClear.18 mph79%29.83 "Hg10 mi
5:30 PM81 °FPassing clouds.17 mph74%29.86 "HgN/A
5:00 PM81 °FPartly sunny.16 mph74%29.83 "HgN/A
4:30 PM82 °FPartly sunny.20 mph70%29.80 "HgN/A
4:00 PM82 °FPartly sunny.21 mph70%29.80 "HgN/A
3:30 PM82 °FPartly sunny.18 mph70%29.80 "HgN/A
3:00 PM82 °FPassing clouds.22 mph70%29.80 "HgN/A
2:30 PM82 °FPartly sunny.22 mph74%29.80 "HgN/A
2:00 PM81 °FPartly sunny.22 mph74%29.83 "HgN/A
Weather by CustomWeather, © 2015

See weather overviewHow to use our weather pages